#Datum;Uhrzeit;WR;Pac;DaySum;Status;WR;Pac;DaySum;Status;Pdc1;Udc;Temp;WR;Pac;DaySum;Status;Pdc1;Udc;Temp;WR;Pac;DaySum;Status;Pdc1;Udc;Temp;WR;Pac;DaySum;Status;Pdc1;Pdc2;Udc1;Udc2;Temp;WR;Pac;DaySum;Status;Pdc1;Pdc2;Udc1;Udc2;Temp;WR;Pac;DaySum;Status;Pdc1;Udc;Temp;WR;Pac;DaySum;Status;Pdc1;Udc;Temp;WR;Pac;DaySum;Status;Pdc1;Udc;Temp
01.02.18;23:55:00;1;761;9416;0;2;0;2431;0;0;0;0;3;0;1467;0;0;0;0;4;0;1990;0;0;0;0;5;0;5197;0;0;0;0;0;0;6;0;2946;0;0;0;0;0;0;7;0;2442;0;0;0;0;8;0;2457;0;0;0;0;9;0;1303;0;0;0;0
01.02.18;23:50:00;1;2335;9323;0;2;0;2431;0;0;0;0;3;0;1467;0;0;0;0;4;0;1990;0;0;0;0;5;0;5197;0;0;0;0;0;0;6;0;2946;0;0;0;0;0;0;7;0;2442;0;0;0;0;8;0;2457;0;0;0;0;9;0;1303;0;0;0;0
01.02.18;23:45:00;1;506;9141;0;2;0;2431;0;0;0;0;3;0;1467;0;0;0;0;4;0;1990;0;0;0;0;5;0;5197;0;0;0;0;0;0;6;0;2946;0;0;0;0;0;0;7;0;2442;0;0;0;0;8;0;2457;0;0;0;0;9;0;1303;0;0;0;0
01.02.18;23:40:00;1;2085;9086;0;2;0;2431;0;0;0;0;3;0;1467;0;0;0;0;4;0;1990;0;0;0;0;5;0;5197;0;0;0;0;0;0;6;0;2946;0;0;0;0;0;0;7;0;2442;0;0;0;0;8;0;2457;0;0;0;0;9;0;1303;0;0;0;0
01.02.18;23:35:00;1;1678;8929;0;2;0;2431;0;0;0;0;3;0;1467;0;0;0;0;4;0;1990;0;0;0;0;5;0;5197;0;0;0;0;0;0;6;0;2946;0;0;0;0;0;0;7;0;2442;0;0;0;0;8;0;2457;0;0;0;0;9;0;1303;0;0;0;0
01.02.18;23:30:00;1;2379;8775;0;2;0;2431;0;0;0;0;3;0;1467;0;0;0;0;4;0;1990;0;0;0;0;5;0;5197;0;0;0;0;0;0;6;0;2946;0;0;0;0;0;0;7;0;2442;0;0;0;0;8;0;2457;0;0;0;0;9;0;1303;0;0;0;0
01.02.18;23:25:00;1;1313;8577;0;2;0;2431;0;0;0;0;3;0;1467;0;0;0;0;4;0;1990;0;0;0;0;5;0;5197;0;0;0;0;0;0;6;0;2946;0;0;0;0;0;0;7;0;2442;0;0;0;0;8;0;2457;0;0;0;0;9;0;1303;0;0;0;0
01.02.18;23:20:00;1;712;8495;0;2;0;2431;0;0;0;0;3;0;1467;0;0;0;0;4;0;1990;0;0;0;0;5;0;5197;0;0;0;0;0;0;6;0;2946;0;0;0;0;0;0;7;0;2442;0;0;0;0;8;0;2457;0;0;0;0;9;0;1303;0;0;0;0
01.02.18;23:15:00;1;373;8447;0;2;0;2431;0;0;0;0;3;0;1467;0;0;0;0;4;0;1990;0;0;0;0;5;0;5197;0;0;0;0;0;0;6;0;2946;0;0;0;0;0;0;7;0;2442;0;0;0;0;8;0;2457;0;0;0;0;9;0;1303;0;0;0;0
01.02.18;23:10:00;1;727;8416;0;2;0;2431;0;0;0;0;3;0;1467;0;0;0;0;4;0;1990;0;0;0;0;5;0;5197;0;0;0;0;0;0;6;0;2946;0;0;0;0;0;0;7;0;2442;0;0;0;0;8;0;2457;0;0;0;0;9;0;1303;0;0;0;0
01.02.18;23:05:00;1;354;8359;0;2;0;2431;0;0;0;0;3;0;1467;0;0;0;0;4;0;1990;0;0;0;0;5;0;5197;0;0;0;0;0;0;6;0;2946;0;0;0;0;0;0;7;0;2442;0;0;0;0;8;0;2457;0;0;0;0;9;0;1303;0;0;0;0
01.02.18;23:00:00;1;352;8329;0;2;0;2431;0;0;0;0;3;0;1467;0;0;0;0;4;0;1990;0;0;0;0;5;0;5197;0;0;0;0;0;0;6;0;2946;0;0;0;0;0;0;7;0;2442;0;0;0;0;8;0;2457;0;0;0;0;9;0;1303;0;0;0;0
01.02.18;22:55:00;1;763;8299;0;2;0;2431;0;0;0;0;3;0;1467;0;0;0;0;4;0;1990;0;0;0;0;5;0;5197;2;0;0;0;0;0;6;0;2946;2;0;0;0;0;0;7;0;2442;0;0;0;0;8;0;2457;0;0;0;0;9;0;1303;0;0;0;0
01.02.18;22:50:00;1;355;8242;0;2;0;2431;0;0;0;0;3;0;1467;0;0;0;0;4;0;1990;0;0;0;0;5;0;5197;2;0;0;0;0;0;6;0;2946;2;0;0;0;0;0;7;0;2442;0;0;0;0;8;0;2457;0;0;0;0;9;0;1303;0;0;0;0
01.02.18;22:45:00;1;566;8212;0;2;0;2431;0;0;0;0;3;0;1467;0;0;0;0;4;0;1990;0;0;0;0;5;0;5197;2;0;0;0;0;0;6;0;2946;2;0;0;0;0;0;7;0;2442;0;0;0;0;8;0;2457;0;0;0;0;9;0;1303;0;0;0;0
01.02.18;22:40:00;1;393;8155;0;2;0;2431;0;0;0;0;3;0;1467;0;0;0;0;4;0;1990;0;0;0;0;5;0;5197;2;0;0;0;0;0;6;0;2946;2;0;0;0;0;0;7;0;2442;0;0;0;0;8;0;2457;0;0;0;0;9;0;1303;0;0;0;0
01.02.18;22:35:00;1;390;8122;0;2;0;2431;0;0;0;0;3;0;1467;0;0;0;0;4;0;1990;0;0;0;0;5;0;5197;2;0;0;0;0;0;6;0;2946;2;0;0;0;0;0;7;0;2442;0;0;0;0;8;0;2457;0;0;0;0;9;0;1303;0;0;0;0
01.02.18;22:30:00;1;780;8089;0;2;0;2431;0;0;0;0;3;0;1467;0;0;0;0;4;0;1990;0;0;0;0;5;0;5197;2;0;0;0;0;0;6;0;2946;2;0;0;0;0;0;7;0;2442;0;0;0;0;8;0;2457;0;0;0;0;9;0;1303;0;0;0;0
01.02.18;22:25:00;1;353;8030;0;2;0;2431;0;0;0;0;3;0;1467;0;0;0;0;4;0;1990;0;0;0;0;5;0;5197;2;0;0;0;0;0;6;0;2946;2;0;0;0;0;0;7;0;2442;0;0;0;0;8;0;2457;0;0;0;0;9;0;1303;0;0;0;0
01.02.18;22:20:00;1;361;8000;0;2;0;2431;0;0;0;0;3;0;1467;0;0;0;0;4;0;1990;0;0;0;0;5;0;5197;2;0;0;0;0;0;6;0;2946;2;0;0;0;0;0;7;0;2442;0;0;0;0;8;0;2457;0;0;0;0;9;0;1303;0;0;0;0
01.02.18;22:15:00;1;881;7969;0;2;0;2431;0;0;0;0;3;0;1467;0;0;0;0;4;0;1990;0;0;0;0;5;0;5197;2;0;0;0;0;0;6;0;2946;2;0;0;0;0;0;7;0;2442;0;0;0;0;8;0;2457;0;0;0;0;9;0;1303;0;0;0;0
01.02.18;22:10:00;1;393;7908;0;2;0;2431;0;0;0;0;3;0;1467;0;0;0;0;4;0;1990;0;0;0;0;5;0;5197;2;0;0;0;0;0;6;0;2946;2;0;0;0;0;0;7;0;2442;0;0;0;0;8;0;2457;0;0;0;0;9;0;1303;0;0;0;0
01.02.18;22:05:00;1;612;7875;0;2;0;2431;0;0;0;0;3;0;1467;0;0;0;0;4;0;1990;0;0;0;0;5;0;5197;2;0;0;0;0;0;6;0;2946;2;0;0;0;0;0;7;0;2442;0;0;0;0;8;0;2457;0;0;0;0;9;0;1303;0;0;0;0
01.02.18;22:00:00;1;425;7813;0;2;0;2431;0;0;0;0;3;0;1467;0;0;0;0;4;0;1990;0;0;0;0;5;0;5197;2;0;0;0;0;0;6;0;2946;2;0;0;0;0;0;7;0;2442;0;0;0;0;8;0;2457;0;0;0;0;9;0;1303;0;0;0;0
01.02.18;21:55:00;1;418;7778;0;2;0;2431;0;0;0;0;3;0;1467;0;0;0;0;4;0;1990;0;0;0;0;5;0;5197;2;0;0;0;0;0;6;0;2946;2;0;0;0;0;0;7;0;2442;0;0;0;0;8;0;2457;0;0;0;0;9;0;1303;0;0;0;0
01.02.18;21:50:00;1;820;7743;0;2;0;2431;0;0;0;0;3;0;1467;0;0;0;0;4;0;1990;0;0;0;0;5;0;5197;2;0;0;0;0;0;6;0;2946;2;0;0;0;0;0;7;0;2442;0;0;0;0;8;0;2457;0;0;0;0;9;0;1303;0;0;0;0
01.02.18;21:45:00;1;455;7678;0;2;0;2431;0;0;0;0;3;0;1467;0;0;0;0;4;0;1990;0;0;0;0;5;0;5197;2;0;0;0;0;0;6;0;2946;2;0;0;0;0;0;7;0;2442;0;0;0;0;8;0;2457;0;0;0;0;9;0;1303;0;0;0;0
01.02.18;21:40:00;1;443;7642;0;2;0;2431;0;0;0;0;3;0;1467;0;0;0;0;4;0;1990;0;0;0;0;5;0;5197;2;0;0;0;0;0;6;0;2946;2;0;0;0;0;0;7;0;2442;0;0;0;0;8;0;2457;0;0;0;0;9;0;1303;0;0;0;0
01.02.18;21:35:00;1;962;7604;0;2;0;2431;0;0;0;0;3;0;1467;0;0;0;0;4;0;1990;0;0;0;0;5;0;5197;2;0;0;0;0;0;6;0;2946;2;0;0;0;0;0;7;0;2442;0;0;0;0;8;0;2457;0;0;0;0;9;0;1303;0;0;0;0
01.02.18;21:30:00;1;401;7538;0;2;0;2431;0;0;0;0;3;0;1467;0;0;0;0;4;0;1990;0;0;0;0;5;0;5197;2;0;0;0;0;0;6;0;2946;2;0;0;0;0;0;7;0;2442;0;0;0;0;8;0;2457;0;0;0;0;9;0;1303;0;0;0;0
01.02.18;21:25:00;1;505;7505;0;2;0;2431;0;0;0;0;3;0;1467;0;0;0;0;4;0;1990;0;0;0;0;5;0;5197;2;0;0;0;0;0;6;0;2946;2;0;0;0;0;0;7;0;2442;0;0;0;0;8;0;2457;0;0;0;0;9;0;1303;0;0;0;0
01.02.18;21:20:00;1;478;7455;0;2;0;2431;0;0;0;0;3;0;1467;0;0;0;0;4;0;1990;0;0;0;0;5;0;5197;2;0;0;0;0;0;6;0;2946;2;0;0;0;0;0;7;0;2442;0;0;0;0;8;0;2457;0;0;0;0;9;0;1303;0;0;0;0
01.02.18;21:15:00;1;252;7429;0;2;0;2431;0;0;0;0;3;0;1467;0;0;0;0;4;0;1990;0;0;0;0;5;0;5197;2;0;0;0;0;0;6;0;2946;2;0;0;0;0;0;7;0;2442;0;0;0;0;8;0;2457;0;0;0;0;9;0;1303;0;0;0;0
01.02.18;21:10:00;1;612;7408;0;2;0;2431;0;0;0;0;3;0;1467;0;0;0;0;4;0;1990;0;0;0;0;5;0;5197;2;0;0;0;0;0;6;0;2946;2;0;0;0;0;0;7;0;2442;0;0;0;0;8;0;2457;0;0;0;0;9;0;1303;0;0;0;0
01.02.18;21:05:00;1;251;7359;0;2;0;2431;0;0;0;0;3;0;1467;0;0;0;0;4;0;1990;0;0;0;0;5;0;5197;2;0;0;0;0;0;6;0;2946;2;0;0;0;0;0;7;0;2442;0;0;0;0;8;0;2457;0;0;0;0;9;0;1303;0;0;0;0
01.02.18;21:00:00;1;273;7338;0;2;0;2431;0;0;0;0;3;0;1467;0;0;0;0;4;0;1990;0;0;0;0;5;0;5197;2;0;0;0;0;0;6;0;2946;2;0;0;0;0;0;7;0;2442;0;0;0;0;8;0;2457;0;0;0;0;9;0;1303;0;0;0;0
01.02.18;20:55:00;1;702;7315;0;2;0;2431;0;0;0;0;3;0;1467;0;0;0;0;4;0;1990;0;0;0;0;5;0;5197;2;0;0;0;0;0;6;0;2946;2;0;0;0;0;0;7;0;2442;0;0;0;0;8;0;2457;0;0;0;0;9;0;1303;0;0;0;0
01.02.18;20:50:00;1;295;7261;0;2;0;2431;0;0;0;0;3;0;1467;0;0;0;0;4;0;1990;0;0;0;0;5;0;5197;2;0;0;0;0;0;6;0;2946;2;0;0;0;0;0;7;0;2442;0;0;0;0;8;0;2457;0;0;0;0;9;0;1303;0;0;0;0
01.02.18;20:45:00;1;279;7236;0;2;0;2431;0;0;0;0;3;0;1467;0;0;0;0;4;0;1990;0;0;0;0;5;0;5197;2;0;0;0;0;0;6;0;2946;2;0;0;0;0;0;7;0;2442;0;0;0;0;8;0;2457;0;0;0;0;9;0;1303;0;0;0;0
01.02.18;20:40:00;1;511;7213;0;2;0;2431;0;0;0;0;3;0;1467;0;0;0;0;4;0;1990;0;0;0;0;5;0;5197;2;0;0;0;0;0;6;0;2946;2;0;0;0;0;0;7;0;2442;0;0;0;0;8;0;2457;0;0;0;0;9;0;1303;0;0;0;0
01.02.18;20:35:00;1;250;7164;0;2;0;2431;0;0;0;0;3;0;1467;0;0;0;0;4;0;1990;0;0;0;0;5;0;5197;2;0;0;0;0;0;6;0;2946;2;0;0;0;0;0;7;0;2442;0;0;0;0;8;0;2457;0;0;0;0;9;0;1303;0;0;0;0
01.02.18;20:30:00;1;429;7143;0;2;0;2431;0;0;0;0;3;0;1467;0;0;0;0;4;0;1990;0;0;0;0;5;0;5197;2;0;0;0;0;0;6;0;2946;2;0;0;0;0;0;7;0;2442;0;0;0;0;8;0;2457;0;0;0;0;9;0;1303;0;0;0;0
01.02.18;20:25:00;1;316;7092;0;2;0;2431;0;0;0;0;3;0;1467;0;0;0;0;4;0;1990;0;0;0;0;5;0;5197;2;0;0;0;0;0;6;0;2946;2;0;0;0;0;0;7;0;2442;0;0;0;0;8;0;2457;0;0;0;0;9;0;1303;0;0;0;0
01.02.18;20:20:00;1;317;7066;0;2;0;2431;0;0;0;0;3;0;1467;0;0;0;0;4;0;1990;0;0;0;0;5;0;5197;2;0;0;0;0;0;6;0;2946;2;0;0;0;0;0;7;0;2442;0;0;0;0;8;0;2457;0;0;0;0;9;0;1303;0;0;0;0
01.02.18;20:15:00;1;921;7040;0;2;0;2431;0;0;0;0;3;0;1467;0;0;0;0;4;0;1990;0;0;0;0;5;0;5197;2;0;0;0;0;0;6;0;2946;2;0;0;0;0;0;7;0;2442;0;0;0;0;8;0;2457;0;0;0;0;9;0;1303;0;0;0;0
01.02.18;20:10:00;1;317;6984;0;2;0;2431;0;0;0;0;3;0;1467;0;0;0;0;4;0;1990;0;0;0;0;5;0;5197;2;0;0;0;0;0;6;0;2946;2;0;0;0;0;0;7;0;2442;0;0;0;0;8;0;2457;0;0;0;0;9;0;1303;0;0;0;0
01.02.18;20:05:00;1;322;6958;0;2;0;2431;0;0;0;0;3;0;1467;0;0;0;0;4;0;1990;0;0;0;0;5;0;5197;2;0;0;0;0;0;6;0;2946;2;0;0;0;0;0;7;0;2442;0;0;0;0;8;0;2457;0;0;0;0;9;0;1303;0;0;0;0
01.02.18;20:00:00;1;546;6931;0;2;0;2431;0;0;0;0;3;0;1467;0;0;0;0;4;0;1990;0;0;0;0;5;0;5197;2;0;0;0;0;0;6;0;2946;2;0;0;0;0;0;7;0;2442;0;0;0;0;8;0;2457;0;0;0;0;9;0;1303;0;0;0;0
01.02.18;19:55:00;1;349;6872;0;2;0;2431;0;0;0;0;3;0;1467;0;0;0;0;4;0;1990;0;0;0;0;5;0;5197;2;0;0;0;0;0;6;0;2946;2;0;0;0;0;0;7;0;2442;0;0;0;0;8;0;2457;0;0;0;0;9;0;1303;0;0;0;0
01.02.18;19:50:00;1;499;6844;0;2;0;2431;0;0;0;0;3;0;1467;0;0;0;0;4;0;1990;0;0;0;0;5;0;5197;2;0;0;0;0;0;6;0;2946;2;0;0;0;0;0;7;0;2442;0;0;0;0;8;0;2457;0;0;0;0;9;0;1303;0;0;0;0
01.02.18;19:45:00;1;249;6794;0;2;0;2431;0;0;0;0;3;0;1467;0;0;0;0;4;0;1990;0;0;0;0;5;0;5197;2;0;0;0;0;0;6;0;2946;2;0;0;0;0;0;7;0;2442;0;0;0;0;8;0;2457;0;0;0;0;9;0;1303;0;0;0;0
01.02.18;19:40:00;1;248;6773;0;2;0;2431;0;0;0;0;3;0;1467;0;0;0;0;4;0;1990;0;0;0;0;5;0;5197;2;0;0;0;0;0;6;0;2946;2;0;0;0;0;0;7;0;2442;0;0;0;0;8;0;2457;0;0;0;0;9;0;1303;0;0;0;0
01.02.18;19:35:00;1;651;6752;0;2;0;2431;0;0;0;0;3;0;1467;0;0;0;0;4;0;1990;0;0;0;0;5;0;5197;2;0;0;0;0;0;6;0;2946;2;0;0;0;0;0;7;0;2442;0;0;0;0;8;0;2457;0;0;0;0;9;0;1303;0;0;0;0
01.02.18;19:30:00;1;249;6697;0;2;0;2431;0;0;0;0;3;0;1467;0;0;0;0;4;0;1990;0;0;0;0;5;0;5197;2;0;0;0;0;0;6;0;2946;2;0;0;0;0;0;7;0;2442;0;0;0;0;8;0;2457;0;0;0;0;9;0;1303;0;0;0;0
01.02.18;19:25:00;1;250;6677;0;2;0;2431;0;0;0;0;3;0;1467;0;0;0;0;4;0;1990;0;0;0;0;5;0;5197;2;0;0;0;0;0;6;0;2946;2;0;0;0;0;0;7;0;2442;0;0;0;0;8;0;2457;0;0;0;0;9;0;1303;0;0;0;0
01.02.18;19:20:00;1;464;6656;0;2;0;2431;0;0;0;0;3;0;1467;0;0;0;0;4;0;1990;0;0;0;0;5;0;5197;2;0;0;0;0;0;6;0;2946;2;0;0;0;0;0;7;0;2442;0;0;0;0;8;0;2457;0;0;0;0;9;0;1303;0;0;0;0
01.02.18;19:15:00;1;282;6605;0;2;0;2431;0;0;0;0;3;0;1467;0;0;0;0;4;0;1990;0;0;0;0;5;0;5197;2;0;0;0;0;0;6;0;2946;2;0;0;0;0;0;7;0;2442;0;0;0;0;8;0;2457;0;0;0;0;9;0;1303;0;0;0;0
01.02.18;19:10:00;1;333;6581;0;2;0;2431;0;0;0;0;3;0;1467;0;0;0;0;4;0;1990;0;0;0;0;5;0;5197;2;0;0;0;0;0;6;0;2946;2;0;0;0;0;0;7;0;2442;0;0;0;0;8;0;2457;0;0;0;0;9;0;1303;0;0;0;0
01.02.18;19:05:00;1;777;6553;0;2;0;2431;0;0;0;0;3;0;1467;0;0;0;0;4;0;1990;0;0;0;0;5;0;5197;2;0;0;0;0;0;6;0;2946;2;0;0;0;0;0;7;0;2442;0;0;0;0;8;0;2457;0;0;0;0;9;0;1303;0;0;0;0
01.02.18;19:00:00;1;429;6490;0;2;0;2431;0;0;0;0;3;0;1467;0;0;0;0;4;0;1990;0;0;0;0;5;0;5197;2;0;0;0;0;0;6;0;2946;2;0;0;0;0;0;7;0;2442;0;0;0;0;8;0;2457;0;0;0;0;9;0;1303;0;0;0;0
01.02.18;18:55:00;1;377;6456;0;2;0;2431;0;0;0;0;3;0;1467;0;0;0;0;4;0;1990;0;0;0;0;5;0;5197;2;0;0;0;0;0;6;0;2946;2;0;0;0;0;0;7;0;2442;0;0;0;0;8;0;2457;0;0;0;0;9;0;1303;0;0;0;0
01.02.18;18:50:00;1;760;6413;0;2;0;2431;0;0;0;0;3;0;1467;0;0;0;0;4;0;1990;0;0;0;0;5;0;5197;2;0;0;0;0;0;6;0;2946;2;0;0;0;0;0;7;0;2442;0;0;0;0;8;0;2457;0;0;0;0;9;0;1303;0;0;0;0
01.02.18;18:45:00;1;443;6362;0;2;0;2431;0;0;0;0;3;0;1467;0;0;0;0;4;0;1990;0;0;0;0;5;0;5197;2;0;0;0;0;0;6;0;2946;2;0;0;0;0;0;7;0;2442;0;0;0;0;8;0;2457;0;0;0;0;9;0;1303;0;0;0;0
01.02.18;18:40:00;1;591;6326;0;2;0;2431;0;0;0;0;3;0;1467;0;0;0;0;4;0;1990;0;0;0;0;5;0;5197;2;0;0;0;0;0;6;0;2946;2;0;0;0;0;0;7;0;2442;0;0;0;0;8;0;2457;0;0;0;0;9;0;1303;0;0;0;0
01.02.18;18:35:00;1;269;6266;0;2;0;2431;0;0;0;0;3;0;1467;0;0;0;0;4;0;1990;0;0;0;0;5;0;5197;2;0;0;0;0;0;6;0;2946;2;0;0;0;0;0;7;0;2442;0;0;0;0;8;0;2457;0;0;0;0;9;0;1303;0;0;0;0
01.02.18;18:30:00;1;352;6243;0;2;0;2431;0;0;0;0;3;0;1467;0;0;0;0;4;0;1990;0;0;0;0;5;0;5197;2;0;0;0;0;0;6;0;2946;2;0;0;0;0;0;7;0;2442;0;0;0;0;8;0;2457;0;0;0;0;9;0;1303;0;0;0;0
01.02.18;18:25:00;1;493;6214;0;2;0;2431;0;0;0;0;3;0;1467;0;0;0;0;4;0;1990;0;0;0;0;5;0;5197;2;0;0;0;0;0;6;0;2946;2;0;0;0;0;0;7;0;2442;0;0;0;0;8;0;2457;0;0;0;0;9;0;1303;0;0;0;0
01.02.18;18:20:00;1;281;6161;0;2;0;2431;0;0;0;0;3;0;1467;0;0;0;0;4;0;1990;0;0;0;0;5;0;5197;2;0;0;0;0;0;6;0;2946;2;0;0;0;0;0;7;0;2442;0;0;0;0;8;0;2457;0;0;0;0;9;0;1303;0;0;0;0
01.02.18;18:15:00;1;298;6137;0;2;0;2431;0;0;0;0;3;0;1467;0;0;0;0;4;0;1990;0;0;0;0;5;0;5197;2;0;0;0;0;0;6;0;2946;2;0;0;0;0;0;7;0;2442;0;0;0;0;8;0;2457;0;0;0;0;9;0;1303;0;0;0;0
01.02.18;18:10:00;1;656;6113;0;2;0;2431;0;0;0;0;3;0;1467;0;0;0;0;4;0;1990;0;0;0;0;5;0;5197;2;0;0;0;0;0;6;0;2946;2;0;0;0;0;0;7;0;2442;0;0;0;0;8;0;2457;0;0;0;0;9;0;1303;0;0;0;0
01.02.18;18:05:00;1;267;6058;0;2;0;2431;0;0;0;0;3;0;1467;0;0;0;0;4;0;1990;0;0;0;0;5;0;5197;2;0;0;0;0;0;6;0;2946;2;0;0;0;0;0;7;0;2442;0;0;0;0;8;0;2457;0;0;0;0;9;0;1303;0;0;0;0
01.02.18;18:00:00;1;209;6036;0;2;0;2431;0;0;0;0;3;0;1467;0;0;0;0;4;0;1990;0;0;0;0;5;0;5197;2;0;0;0;0;0;6;0;2946;2;0;0;0;0;0;7;0;2442;0;0;0;0;8;0;2457;0;0;0;0;9;0;1303;0;0;0;0
01.02.18;17:55:00;1;653;6019;0;2;0;2431;0;0;0;0;3;0;1467;0;0;0;0;4;0;1990;0;0;0;0;5;0;5197;2;0;0;0;0;0;6;0;2946;2;0;0;0;0;0;7;0;2442;0;0;0;0;8;0;2457;0;0;0;0;9;0;1303;0;0;0;0
01.02.18;17:50:00;1;187;5973;0;2;0;2431;0;0;0;0;3;0;1467;0;0;0;0;4;0;1990;0;0;0;0;5;0;5197;2;0;0;0;0;0;6;0;2946;2;0;0;0;0;0;7;0;2442;0;0;0;0;8;0;2457;0;0;0;0;9;0;1303;0;0;0;0
01.02.18;17:45:00;1;188;5957;0;2;0;2431;0;0;0;0;3;0;1467;0;0;0;0;4;0;1990;0;0;0;0;5;0;5197;2;0;0;0;0;0;6;0;2946;2;0;0;0;0;0;7;0;2442;0;0;0;0;8;0;2457;0;0;0;0;9;0;1303;0;0;0;0
01.02.18;17:40:00;1;540;5930;0;2;0;2431;0;0;0;0;3;0;1467;0;0;0;0;4;0;1990;0;0;0;0;5;0;5197;2;0;0;0;0;0;6;0;2946;2;0;0;0;0;0;7;0;2442;0;0;0;0;8;0;2457;0;0;0;0;9;0;1303;0;0;0;0
01.02.18;17:35:00;1;187;5898;0;2;0;2431;0;0;0;0;3;0;1467;0;0;0;0;4;0;1990;0;0;0;0;5;0;5197;2;0;0;0;0;0;6;0;2946;2;0;0;0;0;0;7;0;2442;0;0;0;0;8;0;2457;0;0;0;0;9;0;1303;0;0;0;0
01.02.18;17:30:00;1;378;5882;0;2;0;2431;0;0;0;0;3;0;1467;0;0;0;0;4;0;1990;0;0;0;0;5;0;5197;2;0;0;0;0;0;6;0;2946;2;0;0;0;0;0;7;0;2442;0;0;0;0;8;0;2457;0;0;0;0;9;0;1303;0;0;0;0
01.02.18;17:25:00;1;229;5835;0;2;0;2431;0;0;0;0;3;0;1467;0;0;0;0;4;0;1990;0;0;0;0;5;0;5197;2;0;0;0;0;0;6;0;2946;2;0;0;0;0;0;7;0;2442;0;0;0;0;8;0;2457;0;0;0;0;9;0;1303;0;0;0;0
01.02.18;17:20:00;1;232;5816;0;2;0;2431;0;0;35;1;3;0;1467;0;0;190;11;4;0;1990;0;0;0;0;5;0;5197;2;0;0;0;0;0;6;0;2946;2;0;0;0;0;0;7;0;2442;0;0;0;0;8;0;2457;0;0;0;0;9;0;1303;0;0;0;0
01.02.18;17:15:00;1;494;5797;0;2;0;2431;6;0;274;13;3;0;1467;6;0;301;16;4;0;1990;0;0;10;1;5;0;5197;2;0;0;0;0;0;6;0;2946;0;0;0;0;0;0;7;0;2442;0;0;0;0;8;0;2457;0;0;0;0;9;0;1303;0;0;0;0
01.02.18;17:10:00;1;185;5751;0;2;0;2431;6;0;309;13;3;0;1467;6;0;360;16;4;0;1990;2;0;82;10;5;0;5197;2;0;1;85;84;6;6;0;2946;0;0;0;0;0;0;7;0;2442;0;0;0;0;8;0;2457;0;0;0;0;9;0;1303;0;0;0;0
01.02.18;17:05:00;1;185;5736;0;2;0;2431;6;0;335;13;3;0;1467;6;0;387;16;4;0;1990;1;0;108;10;5;0;5197;2;0;0;274;272;17;6;0;2946;0;3;2;143;324;16;7;0;2442;0;0;0;0;8;0;2457;0;0;0;0;9;0;1303;0;0;102;4
01.02.18;17:00:00;1;457;5720;0;2;0;2431;6;0;373;14;3;0;1467;6;1;449;17;4;0;1990;1;0;162;11;5;8;5197;1;0;1;399;586;22;6;0;2946;23;5;4;312;413;20;7;0;2442;6;0;311;15;8;0;2457;6;0;316;15;9;0;1303;6;0;334;11
01.02.18;16:55:00;1;185;5674;0;2;0;2431;6;0;387;14;3;0;1467;6;2;464;17;4;0;1990;1;0;189;11;5;9;5196;26;0;2;408;616;22;6;0;2946;23;5;5;503;258;21;7;0;2442;6;0;361;15;8;0;2457;6;0;367;15;9;0;1303;6;0;393;11
01.02.18;16:50:00;1;192;5658;0;2;0;2431;6;0;399;14;3;1;1467;6;2;484;17;4;0;1990;1;0;211;11;5;11;5196;26;1;1;419;660;22;6;0;2946;23;6;6;320;577;21;7;0;2442;6;0;402;15;8;0;2457;6;0;408;15;9;0;1303;6;1;412;11
01.02.18;16:45:00;1;701;5642;0;2;2;2431;6;5;405;14;3;1;1467;3;9;471;17;4;0;1990;3;0;216;12;5;83;5194;4;21;26;372;591;23;6;42;2946;1;17;22;479;455;22;7;0;2442;6;2;440;15;8;0;2457;6;0;464;15;9;1;1303;6;2;484;12
01.02.18;16:40:00;1;464;5593;0;2;2;2431;6;7;411;14;3;0;1466;6;5;514;17;4;0;1990;3;0;215;12;5;96;5187;4;30;33;372;591;23;6;9;2943;4;6;9;571;578;22;7;0;2442;6;0;463;16;8;2;2457;4;6;439;15;9;1;1303;6;2;505;12
01.02.18;16:35:00;1;935;5546;0;2;11;2430;3;21;400;14;3;2;1466;6;8;518;17;4;0;1990;3;0;218;12;5;117;5179;4;47;42;372;591;23;6;54;2942;4;17;34;226;446;23;7;2;2442;3;10;440;16;8;2;2457;3;5;467;15;9;0;1303;6;0;542;12
01.02.18;16:30:00;1;1254;5468;0;2;15;2429;6;23;409;15;3;4;1466;6;16;503;17;4;4;1990;3;4;199;12;5;141;5169;4;56;52;372;591;23;6;68;2937;4;24;45;225;446;23;7;1;2441;6;7;481;16;8;6;2457;6;14;460;16;9;2;1303;4;8;505;12
01.02.18;16:25:00;1;451;5380;0;2;55;2428;4;83;378;15;3;5;1466;6;11;534;17;4;27;1989;3;28;198;12;5;178;5157;4;74;70;372;591;23;6;89;2931;4;43;79;226;446;23;7;16;2441;6;24;459;16;8;23;2456;6;41;419;16;9;4;1303;3;8;540;12
01.02.18;16:20:00;1;364;5347;0;2;55;2423;4;84;367;15;3;4;1466;6;9;537;17;4;15;1987;3;16;198;13;5;171;5142;4;71;66;372;591;23;6;87;2924;4;37;71;226;446;23;7;6;2440;6;10;492;16;8;18;2454;4;29;439;16;9;2;1303;6;5;539;12
01.02.18;16:15:00;1;939;5316;0;2;77;2419;4;105;369;15;3;5;1465;4;11;540;17;4;27;1986;3;28;198;13;5;216;5128;4;99;90;372;591;24;6;106;2917;4;52;96;225;446;23;7;36;2440;6;66;435;17;8;41;2453;6;68;437;16;9;4;1302;6;8;546;12
01.02.18;16:10:00;1;359;5258;0;2;143;2413;4;175;390;15;3;81;1464;4;118;496;18;4;104;1984;3;108;218;13;5;342;5109;4;164;141;372;591;24;6;166;2908;4;53;100;225;446;23;7;122;2437;4;154;433;17;8;122;2450;4;159;445;16;9;47;1302;6;63;505;13
01.02.18;16:05:00;1;333;5228;0;2;163;2401;4;192;379;15;3;95;1458;4;132;493;18;4;113;1975;5;117;224;13;5;363;5080;4;178;161;372;591;24;6;179;2894;4;67;128;226;446;23;7;149;2427;4;183;427;17;8;154;2440;4;187;442;16;9;81;1298;4;108;481;13
01.02.18;16:00:00;1;738;5197;0;2;175;2387;4;207;384;15;3;103;1450;4;139;494;18;4;123;1966;5;129;229;13;5;389;5050;4;193;165;392;591;24;6;185;2879;4;57;112;225;449;23;7;153;2414;4;190;449;17;8;162;2427;4;194;454;16;9;82;1292;4;112;499;13
01.02.18;15:55:00;1;259;5145;0;2;190;2373;4;221;385;15;3;110;1441;4;151;511;17;4;139;1956;5;145;232;13;5;423;5017;4;206;177;404;591;24;6;221;2863;4;66;151;225;549;23;7;169;2402;4;206;454;17;8;170;2413;4;206;465;16;9;93;1285;4;119;490;13
01.02.18;15:50:00;1;486;5123;0;2;197;2357;4;229;381;15;3;113;1432;4;153;519;17;4;149;1944;5;156;228;13;5;432;4982;4;212;181;398;591;24;6;234;2844;4;73;167;225;557;23;7;184;2388;4;217;474;17;8;196;2399;4;225;465;16;9;103;1277;4;130;495;13
01.02.18;15:45:00;1;209;5076;0;2;206;2340;4;237;384;15;3;120;1423;4;160;504;17;4;156;1932;5;163;231;13;5;460;4946;4;232;190;397;591;24;6;246;2825;4;75;170;225;557;23;7;206;2372;4;236;444;17;8;206;2383;4;236;435;16;9;109;1269;4;138;505;13
01.02.18;15:40:00;1;224;5059;0;2;204;2323;4;238;386;15;3;119;1413;4;158;515;18;4;160;1919;5;167;229;13;5;453;4907;4;229;192;402;596;24;6;244;2804;4;82;191;226;560;23;7;203;2355;4;246;458;17;8;211;2366;4;249;469;16;9;114;1260;4;144;508;13
01.02.18;15:35:00;1;572;5040;0;2;214;2306;4;245;391;15;3;126;1403;4;163;506;18;4;155;1905;5;162;228;13;5;474;4869;4;234;197;414;615;24;6;248;2784;4;83;189;225;556;23;7;183;2338;4;216;435;17;8;187;2348;4;220;459;16;9;97;1250;4;126;489;13
01.02.18;15:30:00;1;199;4993;0;2;284;2288;4;317;388;15;3;171;1392;4;213;514;18;4;230;1892;5;240;235;13;5;625;4829;4;307;271;399;659;24;6;326;2763;4;109;260;225;565;23;7;265;2323;4;304;464;17;8;271;2333;4;308;466;16;9;143;1242;4;173;517;13
01.02.18;15:25:00;1;186;4976;0;2;298;2265;4;334;390;15;3;183;1378;4;222;515;18;4;248;1873;5;259;237;13;5;658;4776;4;323;277;409;671;24;6;309;2736;4;103;209;226;471;23;7;299;2301;4;336;489;17;8;303;2310;4;344;488;16;9;169;1230;4;198;515;13
01.02.18;15:20:00;1;417;4949;0;2;214;2240;4;245;382;15;3;126;1363;4;164;514;18;4;154;1853;5;160;231;14;5;447;4723;4;225;194;394;594;24;6;235;2711;4;96;154;286;446;23;7;174;2276;4;203;452;17;8;164;2285;4;199;480;16;9;71;1216;4;89;518;13
01.02.18;15:15:00;1;183;4917;0;2;203;2222;4;235;389;16;3;122;1352;4;158;501;18;4;148;1840;5;154;230;14;5;442;4687;4;218;189;405;620;24;6;319;2691;4;161;176;533;537;23;7;140;2261;4;187;444;17;8;151;2271;4;182;451;16;9;65;1210;6;89;522;13
01.02.18;15:10:00;1;417;4901;0;2;291;2205;4;326;395;16;3;174;1342;4;215;514;18;4;232;1827;5;242;231;14;5;631;4650;4;313;265;409;642;24;6;461;2664;4;240;252;592;570;23;7;248;2250;4;287;460;17;8;251;2259;4;290;454;17;9;135;1205;4;163;516;14
01.02.18;15:05:00;1;183;4858;0;2;482;2181;4;523;401;16;3;298;1328;4;343;515;18;4;411;1808;5;428;242;14;5;1010;4595;4;509;435;426;694;24;6;752;2624;4;336;345;594;580;23;7;424;2229;4;462;488;17;8;427;2238;4;470;467;17;9;229;1194;4;261;516;14
01.02.18;15:00:00;1;183;4843;0;2;492;2142;4;534;405;16;3;304;1303;4;350;511;18;4;422;1775;5;439;241;14;5;1049;4510;4;536;451;424;685;24;6;795;2560;4;407;413;598;578;23;7;543;2195;4;577;477;17;8;546;2203;4;578;468;17;9;287;1175;4;325;524;14
01.02.18;14:55:00;1;473;4828;0;2;642;2100;4;690;407;16;3;399;1278;4;451;520;18;4;545;1739;5;568;241;14;5;1329;4422;4;674;567;431;695;24;6;980;2493;4;496;505;599;585;23;7;670;2149;4;717;483;17;8;668;2157;4;718;485;16;9;357;1151;4;398;524;14
01.02.18;14:50:00;1;225;4783;0;2;724;2048;4;775;411;16;3;456;1245;4;510;524;18;4;633;1695;5;659;245;14;5;1468;4311;4;756;641;431;712;24;6;1117;2410;4;590;580;609;581;23;7;786;2095;4;830;493;17;8;782;2103;4;835;485;16;9;423;1122;4;469;532;14
01.02.18;14:45:00;1;227;4764;0;2;701;1987;4;752;412;16;3;441;1207;4;494;520;18;4;616;1642;5;642;243;14;5;1447;4189;4;750;634;435;706;24;6;1101;2317;4;561;562;607;588;23;7;766;2029;4;811;496;17;8;764;2038;4;815;487;16;9;413;1087;4;455;533;14
01.02.18;14:40:00;1;531;4745;0;2;687;1929;4;735;413;16;3;431;1170;4;480;515;18;4;607;1591;5;632;246;14;5;1407;4067;4;723;616;429;695;24;6;912;2225;4;407;547;417;591;23;7;772;1965;4;818;492;17;8;770;1974;4;819;482;16;9;412;1052;4;460;531;14
01.02.18;14:35:00;1;249;4694;0;2;638;1872;4;681;412;16;3;395;1134;4;449;515;18;4;560;1540;5;583;243;14;5;1294;3950;4;674;559;429;708;24;6;673;2151;4;195;466;230;587;23;7;753;1901;4;804;484;16;8;756;1911;4;807;482;16;9;406;1018;4;451;534;14
01.02.18;14:30:00;1;250;4673;0;2;571;1818;4;617;416;16;3;355;1101;4;401;515;18;4;499;1493;5;519;243;14;5;1186;3842;4;603;510;435;706;23;6;606;2095;4;189;457;226;586;23;7;662;1838;4;710;489;16;8;661;1847;4;710;487;16;9;354;984;4;396;531;14
01.02.18;14:25:00;1;485;4641;0;2;612;1771;4;658;412;16;3;386;1072;4;433;515;18;4;533;1451;5;555;245;13;5;1237;3742;4;617;531;428;695;23;6;629;2045;4;184;442;226;587;23;7;699;1782;4;734;492;16;8;699;1792;4;746;488;16;9;374;955;4;414;532;13
01.02.18;14:20:00;1;250;4599;0;2;507;1720;4;551;411;16;3;318;1040;4;364;516;18;4;434;1408;5;452;241;13;5;1021;3642;4;515;437;430;683;23;6;521;1994;4;156;372;226;583;23;7;529;1725;4;572;482;16;8;534;1734;4;575;473;16;9;285;923;4;322;529;13
01.02.18;14:15:00;1;542;4578;0;2;478;1678;4;519;402;15;3;298;1013;4;344;515;18;4;404;1371;5;421;242;13;5;949;3557;4;477;408;424;669;23;6;485;1950;4;153;359;226;579;23;7;504;1681;4;545;484;16;8;511;1690;4;552;483;16;9;274;900;4;307;531;13
01.02.18;14:10:00;1;292;4525;0;2;425;1638;4;464;406;15;3;264;988;4;307;517;18;4;358;1337;5;373;239;13;5;888;3478;4;443;382;425;689;23;6;450;1910;4;131;313;225;570;23;7;418;1639;4;454;485;16;8;414;1648;4;461;464;16;9;225;877;4;258;527;13
01.02.18;14:05:00;1;191;4501;0;2;518;1602;4;560;406;16;3;319;966;4;366;512;18;4;442;1308;5;461;244;13;5;1062;3404;4;532;452;428;703;23;6;534;1872;4;156;379;225;584;23;7;507;1604;4;556;483;16;8;515;1613;4;556;480;16;9;274;859;4;310;527;13
01.02.18;14:00:00;1;516;4485;0;2;557;1560;4;598;410;15;3;352;940;4;396;525;18;4;485;1271;5;505;244;13;5;1137;3314;4;577;492;434;706;23;6;581;1827;4;175;416;226;586;23;7;582;1563;4;617;481;16;8;576;1571;4;625;483;16;9;307;836;4;347;532;13
01.02.18;13:55:00;1;225;4439;0;2;517;1513;4;558;410;15;3;322;911;4;372;518;18;4;437;1231;5;455;245;13;5;1060;3220;4;548;462;427;683;23;6;545;1779;4;162;402;226;579;23;7;563;1515;4;592;489;16;8;559;1524;4;606;485;16;9;299;811;4;336;536;13